Norfolk, VA

6:33 AM EDT on May 26, 2017 (GMT -0400)
Norfolk International

Weather History for KORF - October, 2011

Change the Weather History Date:

Wednesday, October 12, 2011

  Actual Average Record
Temperature  
Mean Temperature 71 °F 63 °F  
Max Temperature 73 °F 71 °F 86 °F (2010)
Min Temperature 69 °F 55 °F 36 °F (1964)
Degree Days  
Heating Degree Days 0 4  
Month to date heating degree days 40 31  
Since 1 July heating degree days 41 42  
Cooling Degree Days 6 2  
Month to date cooling degree days 15 34  
Year to date cooling degree days 2056 1599  
Growing Degree Days 21 (Base 50)    
Moisture  
Dew Point 66 °F    
Average Humidity 91    
Maximum Humidity 97    
Minimum Humidity 84    
Precipitation  
Precipitation T in 0.11 in 1.75 in (1891)
Month to date precipitation 0.22 1.36  
Year to date precipitation 45.79 38.06  
Snow  
Snow 0.00 in 0.00 in 0.00 in (2002)
Month to date snowfall 0.0 0.0  
Since 1 July snowfall 0.0 0.0  
Snow Depth 0.00 in    
Sea Level Pressure  
Sea Level Pressure 29.89 in    
Wind  
Wind Speed 7 mph (ESE)    
Max Wind Speed 6 mph    
Max Gust Speed 7 mph    
Visibility 8 miles    
Events Rain    
T = Trace of Precipitation, MM = Missing Value Source: NWS Daily Summary

Daily Weather History Graph

Daily Weather History Graph

Search for Another Location

Airport or City:

Trip Planner

Search our weather history database for the weather conditions in past years. The results will help you decide how hot, cold, wet, or windy it might be!

Date:

Astronomy

Oct. 12, 2011 Rise Set
Actual Time 7:09 AM EDT 6:32 PM EDT
Civil Twilight 6:43 AM EDT 6:58 PM EDT
Nautical Twilight 6:13 AM EDT 7:28 PM EDT
Astronomical Twilight 5:43 AM EDT 7:58 PM EDT
Moon 6:36 PM EDT (10/12) 7:39 AM EDT (10/12)
Length of Visible Light 12h 15m
Length of Day
11h 23m
Full, 100% of the Moon is Illuminated
Oct 12
Full
Oct 19
Last Quarter
Oct 26
New
Nov 2
First Quarter
Nov 10
Full

Hourly Weather History & Observations

Time (EDT) Temp. Dew Point Humidity Pressure Visibility Wind Dir Wind Speed Gust Speed Precip Events Conditions
12:51 AM 71.1 °F 68.0 °F 90% 29.96 in 10.0 mi East 10.4 mph - N/A   Mostly Cloudy
1:51 AM 71.1 °F 66.9 °F 87% 29.96 in 10.0 mi East 9.2 mph - N/A   Overcast
2:51 AM 71.1 °F 68.0 °F 90% 29.95 in 10.0 mi East 9.2 mph - N/A   Overcast
3:51 AM 71.1 °F 66.9 °F 87% 29.93 in 10.0 mi East 9.2 mph - N/A   Overcast
4:04 AM 71.6 °F 66.2 °F 83% 29.93 in 10.0 mi East 9.2 mph 16.1 mph N/A   Overcast
4:51 AM 71.1 °F 66.9 °F 87% 29.94 in 10.0 mi East 8.1 mph - N/A   Overcast
5:13 AM 69.8 °F 66.2 °F 88% 29.93 in 10.0 mi ESE 8.1 mph - N/A   Overcast
5:51 AM 70.0 °F 64.9 °F 84% 29.93 in 10.0 mi ESE 4.6 mph - N/A   Overcast
6:51 AM 70.0 °F 64.9 °F 84% 29.93 in 10.0 mi East 6.9 mph - N/A   Overcast
7:51 AM 70.0 °F 64.9 °F 84% 29.94 in 10.0 mi East 11.5 mph - N/A   Mostly Cloudy
8:25 AM 69.8 °F 64.4 °F 83% 29.93 in 10.0 mi East 11.5 mph 20.7 mph N/A   Mostly Cloudy
8:41 AM 69.8 °F 64.4 °F 83% 29.93 in 10.0 mi East 12.7 mph 18.4 mph N/A   Mostly Cloudy
8:51 AM 70.0 °F 64.0 °F 81% 29.93 in 10.0 mi ESE 11.5 mph 19.6 mph N/A   Mostly Cloudy
9:15 AM 69.8 °F 64.4 °F 83% 29.93 in 10.0 mi ESE 10.4 mph 20.7 mph N/A   Mostly Cloudy
9:40 AM 69.8 °F 64.4 °F 83% 29.92 in 10.0 mi East 9.2 mph - N/A   Overcast
9:51 AM 70.0 °F 64.9 °F 84% 29.93 in 10.0 mi East 11.5 mph 21.9 mph N/A   Overcast
10:05 AM 69.8 °F 64.4 °F 83% 29.92 in 4.0 mi ESE 10.4 mph - 0.00 in   Light Drizzle
10:32 AM 69.8 °F 66.2 °F 88% 29.92 in 2.5 mi East 9.2 mph 18.4 mph 0.00 in   Light Drizzle
10:51 AM 69.1 °F 66.0 °F 90% 29.92 in 2.0 mi East 10.4 mph 18.4 mph 0.00 in Rain Light Rain
11:09 AM 69.8 °F 66.2 °F 88% 29.91 in 4.0 mi East 10.4 mph - 0.00 in   Light Drizzle
11:33 AM 69.8 °F 66.2 °F 88% 29.90 in 2.5 mi East 10.4 mph 17.3 mph 0.00 in   Light Drizzle
11:51 AM 69.1 °F 66.9 °F 93% 29.89 in 2.0 mi East 9.2 mph 20.7 mph 0.00 in Rain Light Rain
12:06 PM 69.8 °F 66.2 °F 88% 29.89 in 3.0 mi East 10.4 mph 20.7 mph 0.00 in   Light Drizzle
12:16 PM 69.8 °F 66.2 °F 88% 29.88 in 6.0 mi ESE 9.2 mph 18.4 mph 0.00 in   Light Drizzle
12:51 PM 70.0 °F 66.0 °F 87% 29.88 in 7.0 mi East 10.4 mph - 0.00 in   Overcast
1:51 PM 71.1 °F 66.9 °F 87% 29.86 in 7.0 mi ESE 8.1 mph - 0.00 in   Light Drizzle
2:18 PM 73.4 °F 66.2 °F 78% 29.85 in 10.0 mi East 8.1 mph - 0.00 in   Overcast
2:51 PM 72.0 °F 66.0 °F 81% 29.84 in 10.0 mi ESE 6.9 mph - 0.00 in   Overcast
3:51 PM 72.0 °F 66.0 °F 81% 29.84 in 10.0 mi SE 9.2 mph - 0.00 in   Light Drizzle
4:37 PM 71.6 °F 66.2 °F 83% 29.83 in 10.0 mi ESE 8.1 mph - 0.00 in   Overcast
4:51 PM 72.0 °F 66.0 °F 81% 29.83 in 10.0 mi ESE 5.8 mph - 0.00 in   Overcast
5:51 PM 71.1 °F 66.9 °F 87% 29.83 in 10.0 mi ESE 6.9 mph - N/A   Overcast
6:51 PM 71.1 °F 66.9 °F 87% 29.81 in 10.0 mi ESE 8.1 mph - N/A   Overcast
7:51 PM 70.0 °F 66.9 °F 90% 29.81 in 10.0 mi Variable 4.6 mph - N/A   Overcast
8:51 PM 70.0 °F 66.9 °F 90% 29.82 in 10.0 mi Variable 4.6 mph - N/A   Overcast
9:51 PM 70.0 °F 66.9 °F 90% 29.82 in 10.0 mi East 4.6 mph - N/A   Overcast
10:05 PM 69.8 °F 66.2 °F 88% 29.82 in 10.0 mi ESE 4.6 mph - N/A   Overcast
10:51 PM 70.0 °F 68.0 °F 93% 29.81 in 5.0 mi ESE 3.5 mph - N/A   Overcast
11:51 PM 70.0 °F 68.0 °F 93% 29.79 in 5.0 mi ESE 3.5 mph - N/A   Overcast